User: anonymous   Login
Location: Peebles
(55.6412°N, 3.1714°W)
Time: 08:35:23
(UTC+01:00)
Language:

IRIDIUM 33 DEB - Orbit

View from above orbital plane
View from above orbital plane
View from above satellite
View from above satellite

Ground track
Ground track

The orbit data is extracted from the following two-line orbital elements,

1 39783U 97051AAQ 22176.60478282  .00002814  00000-0  85532-3 0  9998
2 39783  86.1695 126.4006 0065775 146.2675 340.8347 14.40559446537722
Epoch (UTC): 25 June 2022 14:30:53
Eccentricity: 0.0065775
inclination: 86.1695°
perigee height: 710 km
apogee height: 803 km
right ascension of ascending node: 126.4006°
argument of perigee: 146.2675°
revolutions per day: 14.40559446
mean anomaly at epoch: 340.8347°
orbit number at epoch: 53772

The dashed part of the orbit path shows where the satellite is in the earth's shadow,  

DLR